[[{"header":{"parameterUnit":"m.s-1","parameterCategory":1,"la1":30.2991,"la2":30.254,"lo1":-89.0895,"lo2":-89.0444,"dy":0.0017,"dx":0.0017,"nx":28,"ny":28,"refTime":"2024-08-12T09:00:00:Z","depth":0,"parameterNumber":2,"parameterNumberName":"U-component_of_WINDS"},"data":[0,0,0,0,0,0,0,0,0,0,0,0,0,0,0,0,0,0,0,0,0,0,0,0,0,0,0,0,0,0,0,0,0,0,0,0,0,0,0,0,0,0,0,0,0,0,0,0,0,0,0,0,0,0,0,0,0,0,1.9533,1.9533,0,1.9524,1.9524,1.9524,1.9439,1.9437,1.9435,1.9433,1.9426,1.9428,1.9429,0,0,0,0,0,0,0,0,0,0,0,0,0,1.9478,1.9479,1.9533,1.9533,1.9533,1.9524,1.9524,1.9524,1.9439,1.9437,1.9434,1.9432,1.9425,1.9427,1.9429,0,0,0,0,0,0,0,0,0,0,0,0,0,1.9489,1.948,1.9533,1.949,1.9486,1.9524,1.9524,1.9524,1.944,1.9437,1.9434,1.9431,1.9425,1.9427,1.943,1.951,0,0,1.9438,1.9439,0,0,0,0,0,0,0,0,1.9488,1.9491,1.9496,1.9493,1.9488,1.9479,1.9502,1.9519,1.9441,1.9457,1.9433,1.9429,1.9446,1.9447,1.9452,1.951,1.9509,1.9438,1.944,1.9441,1.9442,0,0,0,0,0,0,0,1.9488,1.9491,1.953,1.9496,1.9492,1.9471,1.9469,1.9505,1.947,1.9456,1.945,1.945,1.9444,1.945,1.9452,1.9509,1.9438,1.9441,1.9442,1.9443,1.9628,1.9632,0,0,0,0,0,0,1.9493,1.9491,1.953,1.9529,1.948,1.9474,1.9472,1.9486,1.9469,1.9464,1.9452,1.9446,1.9447,1.9449,1.9451,1.954,1.9441,1.9444,1.9445,1.9625,1.9629,1.9633,0,0,0,0,0,0,1.9492,1.9497,1.953,1.9508,1.9511,1.9479,1.9494,1.9487,1.9493,1.9467,1.946,1.9465,1.9445,1.9447,1.9495,1.9539,1.9445,1.9447,1.9621,1.9626,1.9631,1.9722,0,0,0,0,0,0,1.9491,1.9497,1.9527,1.951,1.9512,1.9574,1.9497,1.9489,1.9498,1.9489,1.9477,1.9472,1.9442,1.9491,1.9498,1.9541,1.9449,1.9617,1.9624,1.9629,1.9715,1.973,1.9742,0,0,0,0,0,1.9489,1.9555,1.9529,1.9534,1.9549,1.9577,1.9579,1.9543,1.9502,1.9531,1.9514,1.9472,1.9534,1.9497,1.9503,1.9548,1.9614,1.9622,1.9629,1.9709,1.9727,1.9742,0,0,0,0,0,0,1.9579,1.9551,1.9523,1.9585,1.9584,1.9563,1.9599,1.9563,1.9574,1.9566,1.9522,1.952,1.9573,1.9566,1.9525,1.9623,1.9567,1.9576,1.9625,1.9642,1.9656,1.9654,1.9451,0,0,0,0,0,1.9607,1.9631,1.9606,1.9663,1.9664,1.9632,1.9643,1.9615,1.9612,1.9611,1.9598,1.9597,1.9616,1.9629,1.9646,1.9715,1.9709,1.9749,1.9763,1.9774,1.9781,1.9814,1.983,1.9657,1.9657,1.9657,0,0,1.9663,1.9651,1.9669,1.9681,1.9676,1.9702,1.9632,1.9663,1.9681,1.9617,1.9659,1.9649,1.9646,1.9704,1.9729,1.9699,1.9828,1.9783,1.9793,1.9793,1.9823,1.9839,1.9854,1.9662,1.9661,1.966,0,0,1.9777,1.9772,1.9817,1.9814,1.9808,1.9786,1.9797,1.9781,1.9771,1.9814,1.9765,1.9787,1.9821,1.9819,1.9823,1.9936,1.9897,1.9943,2.0013,2.0045,2.0059,2.007,2.0107,2.0121,1.9951,1.9952,1.9952,0,1.9848,1.9884,1.9845,1.9878,1.9883,1.9825,1.9869,1.9869,1.987,1.9875,1.9842,1.9882,1.9876,1.9931,1.9958,1.9965,1.9974,1.9942,2.006,2.0071,2.0081,2.0116,2.013,1.9957,1.9956,1.9956,1.9955,0,1.9969,1.9995,2.0032,2.0031,2.0042,2.0081,2.0047,2.0063,2.0034,2.0016,2.0059,2.005,2.0061,2.0073,2.0047,2.0124,2.0105,2.0068,2.0009,2.0104,2.0135,2.0148,1.9964,1.9963,1.9961,1.996,0,0,2.0138,2.0115,2.0129,2.0126,2.0115,2.0135,2.0171,2.0181,2.0193,2.0197,2.0224,2.0254,2.0218,2.0222,2.0196,2.0225,2.031,2.0182,2.0182,2.0203,2.039,2.0415,2.0432,2.0286,2.0288,2.029,2.0389,0,2.0245,2.0303,2.0268,2.0332,2.0354,2.0299,2.033,2.0327,2.0311,2.0327,2.031,2.033,2.0283,2.0285,2.0312,2.0294,2.0346,2.0287,2.0308,2.031,2.0307,2.0448,2.0476,2.057,2.0401,2.0404,2.0405,0,2.0377,2.0382,2.0447,2.0429,2.0437,2.0466,2.0471,2.0488,2.0483,2.0469,2.0473,2.0439,2.0472,2.0417,2.0462,2.0422,2.0429,2.0422,2.0425,2.0422,2.036,2.0446,2.0599,2.0612,2.0425,2.0423,2.0422,0,2.0488,2.0513,2.0554,2.0554,2.0536,2.0556,2.055,2.0541,2.0549,2.0554,2.0558,2.0569,2.0574,2.0582,2.0551,2.0515,2.0598,2.0542,2.0586,2.0587,2.0603,2.0601,2.0755,2.0615,2.0615,2.0615,2.0614,0,2.0608,2.0649,2.0603,2.0628,2.0671,2.0632,2.0677,2.0665,2.0658,2.0679,2.0634,2.0655,2.0615,2.0631,2.0608,2.0646,2.065,2.0638,2.0631,2.064,2.0641,2.0641,2.0632,2.0618,2.0617,2.0617,2.0616,0,2.0738,2.071,2.075,2.0729,2.0724,2.0757,2.0739,2.0761,2.0742,2.0769,2.0773,2.0744,2.0761,2.0732,2.0747,2.0731,2.0782,2.0767,2.0783,2.0777,2.0822,2.0816,2.0978,2.0995,2.0848,2.0849,2.0851,0,2.0814,2.0844,2.0826,2.0836,2.0831,2.0849,2.0856,2.0819,2.0828,2.0823,2.0845,2.0859,2.0867,2.0897,2.0877,2.0887,2.0869,2.0925,2.087,2.0878,2.0865,2.0862,2.0863,2.0935,2.0937,2.0939,2.094,0,2.0952,2.0935,2.0946,2.0952,2.0961,2.0965,2.0965,2.0976,2.0937,2.0949,2.0965,2.0972,2.0986,2.0999,2.1004,2.0997,2.0961,2.0958,2.0968,2.0975,2.0981,2.0974,2.0809,2.0953,2.0952,2.0951,2.095,2.095,2.1054,2.1076,2.1066,2.1079,2.1075,2.1076,2.1094,2.1077,2.109,2.1096,2.1075,2.1096,2.1088,2.1091,2.1089,2.1104,2.1079,2.1095,2.1098,2.1101,2.1106,2.0983,2.1106,2.1105,2.1105,2.1105,2.1104,0,2.1185,2.1175,2.1188,2.1188,2.1198,2.1164,2.1162,2.1173,2.1191,2.1188,2.1196,2.1214,2.1226,2.1207,2.1216,2.1232,2.1215,2.1235,2.1231,2.1229,2.113,2.1119,2.1248,2.1248,2.1248,2.1248,2.1248,2.1248,2.1253,2.1288,2.1271,2.1303,2.1294,2.1312,2.1313,2.1314,2.131,2.1331,2.134,2.1328,2.1317,2.1325,2.1334,2.1328,2.1332,2.1356,2.1344,2.1251,2.1237,2.1223,2.1212,2.1359,2.1359,2.1441,2.1442,2.1443]},{"header":{"parameterUnit":"m.s-1","parameterCategory":1,"la1":30.2991,"la2":30.254,"lo1":-89.0895,"lo2":-89.0444,"dy":0.0017,"dx":0.0017,"nx":28,"ny":28,"refTime":"2024-08-12T09:00:00:Z","depth":0,"parameterNumber":3,"parameterNumberName":"V-component_of_WINDS"},"data":[0,0,0,0,0,0,0,0,0,0,0,0,0,0,0,0,0,0,0,0,0,0,0,0,0,0,0,0,0,0,0,0,0,0,0,0,0,0,0,0,0,0,0,0,0,0,0,0,0,0,0,0,0,0,0,0,0,0,2.0578,2.058,0,2.0737,2.0739,2.0741,2.0741,2.0739,2.0737,2.0735,2.089,2.0896,2.0902,0,0,0,0,0,0,0,0,0,0,0,0,0,2.0263,2.0269,2.0578,2.058,2.0582,2.0737,2.0739,2.0741,2.0741,2.0739,2.0736,2.0734,2.0888,2.0895,2.0903,0,0,0,0,0,0,0,0,0,0,0,0,0,2.0409,2.0271,2.0577,2.0601,2.0604,2.0737,2.0739,2.0742,2.0742,2.0739,2.0736,2.0733,2.0886,2.0895,2.0904,2.1021,0,0,2.0931,2.0935,0,0,0,0,0,0,0,0,2.04,2.042,2.0595,2.0599,2.0604,2.0716,2.0685,2.0835,2.0743,2.0689,2.0735,2.0731,2.0834,2.0847,2.0884,2.1028,2.1035,2.0932,2.0938,2.0941,2.0944,0,0,0,0,0,0,0,2.039,2.0413,2.0641,2.0598,2.0603,2.06,2.0617,2.0714,2.0777,2.0694,2.0694,2.0714,2.0836,2.0875,2.0887,2.1037,2.0932,2.094,2.0945,2.0949,2.1282,2.1285,0,0,0,0,0,0,2.0377,2.0405,2.0636,2.0645,2.0493,2.0608,2.0627,2.0683,2.0776,2.0787,2.0716,2.0713,2.0861,2.0877,2.0893,2.1035,2.0941,2.095,2.0955,2.1278,2.1282,2.1286,0,0,0,0,0,0,2.037,2.0398,2.0629,2.0526,2.0555,2.0617,2.0679,2.0688,2.0727,2.0793,2.0803,2.0745,2.0859,2.088,2.0989,2.104,2.0954,2.0962,2.1274,2.1279,2.1284,2.132,0,0,0,0,0,0,2.0361,2.0395,2.0443,2.0527,2.056,2.0726,2.0683,2.0693,2.0744,2.0741,2.0823,2.0833,2.0858,2.0975,2.0998,2.1051,2.0969,2.127,2.1277,2.1283,2.1315,2.1326,2.1335,0,0,0,0,0,2.035,2.0446,2.0445,2.0473,2.0622,2.0729,2.0748,2.0777,2.0748,2.0795,2.0836,2.0831,2.1031,2.0986,2.1012,2.1068,2.1267,2.1275,2.1282,2.131,2.1323,2.1335,0,0,0,0,0,0,2.0364,2.0457,2.0458,2.0584,2.0649,2.0729,2.0789,2.0791,2.0864,2.0858,2.0889,2.0907,2.1015,2.1052,2.1001,2.1185,2.1145,2.1158,2.1157,2.1171,2.1181,2.1169,2.0977,0,0,0,0,0,2.0382,2.0464,2.054,2.0644,2.0676,2.0727,2.0775,2.0792,2.0859,2.0885,2.0935,2.0998,2.1074,2.1124,2.1199,2.1319,2.1335,2.137,2.1381,2.1389,2.14,2.1463,2.1479,2.1311,2.1311,2.1311,0,0,2.042,2.0481,2.0531,2.0648,2.07,2.0781,2.075,2.0838,2.0897,2.0898,2.1004,2.1042,2.1114,2.1228,2.1281,2.1263,2.1449,2.1399,2.1405,2.1411,2.1473,2.1489,2.1503,2.1316,2.1315,2.1315,0,0,2.053,2.0586,2.0678,2.073,2.081,2.0843,2.0865,2.0944,2.097,2.1078,2.1079,2.1148,2.128,2.1331,2.1374,2.15,2.1496,2.1523,2.1577,2.1639,2.1652,2.1664,2.1707,2.1722,2.1533,2.1533,2.1533,0,2.0567,2.0692,2.0724,2.0812,2.0862,2.0868,2.0959,2.1007,2.1106,2.1139,2.1117,2.1282,2.1331,2.1456,2.1487,2.1522,2.1545,2.1514,2.1648,2.166,2.1672,2.1713,2.173,2.1536,2.1536,2.1535,2.1535,0,2.0732,2.0818,2.0882,2.098,2.1037,2.1125,2.1167,2.122,2.1231,2.1265,2.1372,2.143,2.1516,2.1546,2.1558,2.1672,2.1658,2.1642,2.1602,2.169,2.1729,2.1746,2.154,2.1539,2.1538,2.1537,0,0,2.0858,2.097,2.0993,2.1036,2.1123,2.1189,2.1276,2.1362,2.1406,2.1472,2.1544,2.1655,2.164,2.1688,2.1705,2.1759,2.1852,2.1736,2.1738,2.1754,2.198,2.1992,2.201,2.185,2.1853,2.1856,2.1973,0,2.0976,2.1136,2.1165,2.1302,2.138,2.1385,2.146,2.152,2.1553,2.1621,2.1656,2.1733,2.1709,2.1737,2.1791,2.183,2.1898,2.1822,2.1915,2.1918,2.1897,2.2031,2.2044,2.2152,2.1989,2.1992,2.1994,0,2.1138,2.121,2.1356,2.143,2.1464,2.1532,2.1611,2.1678,2.1743,2.1763,2.1816,2.1826,2.1912,2.1868,2.1986,2.1933,2.1973,2.1997,2.2001,2.2011,2.1961,2.2043,2.2188,2.2204,2.2019,2.2017,2.2015,0,2.1213,2.1347,2.1451,2.1488,2.1578,2.1625,2.1664,2.1727,2.1775,2.1843,2.1874,2.195,2.1992,2.2049,2.2077,2.2042,2.2192,2.2151,2.2208,2.2208,2.224,2.2238,2.2392,2.2266,2.2266,2.2265,2.2265,0,2.1343,2.1431,2.1486,2.155,2.1648,2.1678,2.1773,2.181,2.1866,2.1934,2.1942,2.2005,2.2039,2.2106,2.2128,2.2221,2.2239,2.2255,2.226,2.2255,2.2253,2.2281,2.2274,2.227,2.2269,2.2268,2.2267,0,2.1445,2.1486,2.1599,2.1674,2.1695,2.1763,2.1826,2.1886,2.1918,2.2004,2.2026,2.2075,2.2154,2.2188,2.2284,2.2298,2.2405,2.2404,2.2384,2.2385,2.2441,2.2435,2.2619,2.2644,2.2501,2.2502,2.2503,0,2.1525,2.1594,2.1676,2.1724,2.1765,2.1841,2.1891,2.1922,2.1973,2.2052,2.2101,2.2181,2.2247,2.2372,2.2414,2.2487,2.2488,2.2547,2.2499,2.249,2.2487,2.2483,2.2489,2.2556,2.2557,2.2558,2.2559,0,2.1663,2.1679,2.1753,2.1832,2.1892,2.1955,2.2017,2.2055,2.2094,2.2151,2.2233,2.2284,2.2383,2.246,2.2536,2.2572,2.2571,2.2574,2.2591,2.2587,2.2572,2.2579,2.2407,2.257,2.2569,2.2568,2.2568,2.2567,2.1756,2.1816,2.1884,2.1964,2.2014,2.2071,2.2131,2.217,2.224,2.2325,2.2337,2.2425,2.2485,2.2586,2.2625,2.2691,2.2676,2.2701,2.2707,2.2712,2.2716,2.2561,2.2704,2.2704,2.2704,2.2704,2.2703,0,2.1894,2.1937,2.201,2.2097,2.2159,2.2156,2.2223,2.2274,2.2352,2.2409,2.2474,2.2566,2.2641,2.2688,2.2763,2.2806,2.2808,2.2825,2.2822,2.283,2.2725,2.2703,2.2822,2.2822,2.2822,2.2822,2.2822,2.2822,2.1973,2.2074,2.2097,2.2221,2.2263,2.235,2.2389,2.244,2.2486,2.259,2.2653,2.2684,2.2736,2.2814,2.2881,2.2893,2.2919,2.2937,2.2948,2.285,2.2837,2.2825,2.2805,2.2943,2.2943,2.3046,2.3047,2.3048]}]]